Estación de San Julian
Ultimos registro cada 15 minutos 43
| N° | Estación | Fecha / Hora | Temperatura | Humedad | Lluvia | Velocidad | Dirección | Radiación | Presion |
| 43 | San Julian | 02-05-2026 10:30 | 20,5 | 48,9 | 0 | 0 | 17 | 433,1 | 983,7 |
| 42 | San Julian | 02-05-2026 10:15 | 19,2 | 52,1 | 0 | 0 | 21 | 401,9 | 983,7 |
| 41 | San Julian | 02-05-2026 10:00 | 22,5 | 39,8 | 0 | 0 | 29 | 371,9 | 983,6 |
| 40 | San Julian | 02-05-2026 09:45 | 20,8 | 41,3 | 0 | 0 | 28 | 339,4 | 983,7 |
| 39 | San Julian | 02-05-2026 09:30 | 19,8 | 45,5 | 0 | 0 | 27 | 301,9 | 983,7 |
| 38 | San Julian | 02-05-2026 09:15 | 19 | 46,2 | 0 | 0 | 35 | 265,6 | 983,6 |
| 37 | San Julian | 02-05-2026 09:00 | 17,9 | 47,1 | 0 | 0 | 41 | 230,6 | 983,6 |
| 36 | San Julian | 02-05-2026 08:45 | 17,1 | 50 | 0 | 0 | 42 | 21,9 | 983,5 |
| 35 | San Julian | 02-05-2026 08:30 | 16,9 | 51,3 | 0 | 0 | 46 | 114,4 | 983,5 |
| 34 | San Julian | 02-05-2026 08:15 | 16 | 56,2 | 0 | 0 | 59 | 124,4 | 983,6 |
| 33 | San Julian | 02-05-2026 08:00 | 14,3 | 60,6 | 0 | 0 | 70 | 89,4 | 983,5 |
| 32 | San Julian | 02-05-2026 07:45 | 12,9 | 65,3 | 0 | 0 | 74 | 39,4 | 983,5 |
| 31 | San Julian | 02-05-2026 07:30 | 13,5 | 62,9 | 0 | 0 | 58 | 5,6 | 983,4 |
| 30 | San Julian | 02-05-2026 07:15 | 14 | 62,7 | 0 | 0 | 53 | 1,9 | 983,4 |
| 29 | San Julian | 02-05-2026 07:00 | 12,9 | 67,6 | 0 | 0 | 53 | 0,6 | 983,2 |
| 28 | San Julian | 02-05-2026 06:45 | 12,4 | 69,6 | 0 | 0 | 60 | 0,6 | 983,2 |
| 27 | San Julian | 02-05-2026 06:30 | 10 | 75,3 | 0 | 0 | 77 | 0,6 | 983,2 |
| 26 | San Julian | 02-05-2026 06:15 | 10,4 | 73,1 | 0 | 0 | 77 | 0,6 | 983,2 |
| 25 | San Julian | 02-05-2026 06:00 | 11,2 | 69,3 | 0 | 0 | 77 | 0,6 | 982,9 |
| 24 | San Julian | 02-05-2026 05:45 | 14,5 | 59,4 | 0 | 0 | 76 | 0,6 | 983,1 |
| 23 | San Julian | 02-05-2026 05:30 | 12,6 | 67,1 | 0 | 0 | 66 | 0,6 | 983,2 |
| 22 | San Julian | 02-05-2026 05:15 | 13,7 | 62,7 | 0 | 0 | 73 | 0,6 | 983,2 |
| 21 | San Julian | 02-05-2026 05:00 | 14,2 | 62,7 | 0 | 0 | 59 | 0,6 | 983,3 |
| 20 | San Julian | 02-05-2026 04:45 | 13,4 | 67,2 | 0 | 0 | 41 | 0,6 | 983,3 |
| 19 | San Julian | 02-05-2026 04:30 | 14,3 | 63,2 | 0 | 0 | 42 | 0,6 | 983,3 |
| 18 | San Julian | 02-05-2026 04:15 | 13,1 | 69 | 0 | 0 | 65 | 0,6 | 983,3 |
| 17 | San Julian | 02-05-2026 04:00 | 13,8 | 68,4 | 0 | 0 | 56 | 0,6 | 983,3 |
| 16 | San Julian | 02-05-2026 03:45 | 14,3 | 66,5 | 0 | 0 | 46 | 0,6 | 983,4 |
| 15 | San Julian | 02-05-2026 03:30 | 14,8 | 64,6 | 0 | 0 | 70 | 0,6 | 983,5 |
| 14 | San Julian | 02-05-2026 03:15 | 12,9 | 73,1 | 0 | 0 | 83 | 0,6 | 983,4 |
| 13 | San Julian | 02-05-2026 03:00 | 10,6 | 81,1 | 0 | 0 | 86 | 0,6 | 983,8 |
| 12 | San Julian | 02-05-2026 02:45 | 11,9 | 80,3 | 0 | 0 | 86 | 0,6 | 984 |
| 11 | San Julian | 02-05-2026 02:30 | 11,4 | 79,4 | 0 | 0 | 79 | 0,6 | 984 |
| 10 | San Julian | 02-05-2026 02:15 | 11,6 | 82,1 | 0 | 0 | 84 | 0,6 | 984,3 |
| 9 | San Julian | 02-05-2026 02:00 | 10,3 | 85,5 | 0 | 0 | 84 | 0,6 | 984,3 |
| 8 | San Julian | 02-05-2026 01:45 | 10,3 | 85 | 0 | 0 | 84 | 0,6 | 984,6 |
| 7 | San Julian | 02-05-2026 01:30 | 11,4 | 84,4 | 0 | 0 | 84 | 0,6 | 984,6 |
| 6 | San Julian | 02-05-2026 01:15 | 10,7 | 85,5 | 0 | 0 | 83 | 0,6 | 984,8 |
| 5 | San Julian | 02-05-2026 01:00 | 10,2 | 86,4 | 0 | 0 | 79 | 0,6 | 984,8 |
| 4 | San Julian | 02-05-2026 00:45 | 10,5 | 85,6 | 0 | 0 | 79 | 0,6 | 985 |
| 3 | San Julian | 02-05-2026 00:30 | 10,4 | 85,6 | 0 | 0 | 79 | 0,6 | 985 |
| 2 | San Julian | 02-05-2026 00:15 | 10,1 | 84,7 | 0 | 0 | 76 | 0,6 | 985,1 |
| 1 | San Julian | 02-05-2026 00:00 | 10,2 | 82,2 | 0 | 0 | 76 | 0,6 | 985,3 |